This demonstration page uses our WeatherBlox Daily Observations layout. Learn more.

Left ArrowRight Arrow

Hourly Observations for April 14, 2021

Temp ( °F °C ) Dew Point ( °F °C ) Humidity (%) Winds ( mph kmh ) Pressure ( in mb ) Visibility ( mi km ) Precip ( " mm )
12:10 am 00:10 Cloudy 30 -1.1 27 -2.8 88 88 N 8 13 30.53 1034 10 16 0.00 0.00
12:53 am 00:53 Cloudy 30 -1.1 27 -2.8 88 88 NNE 8 13 30.50 1033 10 16 0.00 0.00
1:53 am 01:53 Cloudy 31 -0.6 27 -2.8 85 85 NNE 6 9 30.49 1032 9 14 0.00 0.00
2:22 am 02:22 Cloudy with Light Snow 30 -1.1 28 -2.2 92 92 NNE 6 9 30.52 1034 3 5 0.00 0.00
2:53 am 02:53 Cloudy with Mist and Fog 30 -1.1 27 -2.8 88 88 NE 7 11 30.48 1032 4 6 0.00 0.00
3:18 am 03:18 Cloudy with Mist and Fog 29 -1.7 26 -3.3 89 89 NE 9 15 30.53 1034 4 6 0.00 0.00
3:53 am 03:53 Cloudy with Mist and Fog 29 -1.7 27 -2.8 92 92 ENE 8 13 30.48 1032 4 6 0.00 0.00
4:17 am 04:17 Cloudy with Mist and Fog 29 -1.7 27 -2.8 92 92 ENE 13 20 30.52 1034 4 6 0.00 0.00
4:41 am 04:41 Cloudy with Mist and Fog 28 -2.2 25 -3.9 88 88 E 13 20 30.53 1034 3 5 0.00 0.00
4:53 am 04:53 Cloudy with Mist and Fog 27 -2.8 24 -4.4 89 89 E 15 24 30.49 1033 5 8 0.00 0.00
5:07 am 05:07 Cloudy 27 -2.8 23 -5 85 85 E 10 17 30.54 1034 10 16 0.00 0.00
5:53 am 05:53 Cloudy 27 -2.8 24 -4.4 89 89 E 10 17 30.50 1033 10 16 0.00 0.00
6:49 am 06:49 Cloudy 27 -3 23 -5 86 86 E 8 13 30.55 1035 10 16 0.00 0.00
6:53 am 06:53 Cloudy 27 -2.8 24 -4.4 89 89 E 9 15 30.52 1033 9 14 0.00 0.00
7:28 am 07:28 Cloudy with Mist and Fog 27 -3 23 -5 86 86 E 9 15 30.55 1035 4 6 0.00 0.00
7:53 am 07:53 Cloudy 27 -2.8 23 -5 85 85 E 8 13 30.51 1033 7 11 0.00 0.00
8:53 am 08:53 Cloudy with Mist and Fog 27 -2.8 23 -5 85 85 ENE 9 15 30.52 1034 4 6 0.00 0.00
9:53 am 09:53 Cloudy 28 -2.2 23 -5 81 81 ENE 12 19 30.52 1034 9 14 0.00 0.00
10:05 am 10:05 Cloudy 29 -1.7 23 -5 78 78 ENE 12 19 30.55 1035 10 16 0.00 0.00
10:53 am 10:53 Cloudy 29 -1.7 24 -4.4 82 82 E 10 17 30.53 1034 10 16 0.00 0.00
11:45 am 11:45 Cloudy 30 -1.1 24 -4.4 79 79 ENE 9 15 30.54 1034 10 16 0.00 0.00
11:53 am 11:53 Cloudy 30 -1.1 23 -5 75 75 E 10 17 30.52 1034 10 16 0.00 0.00
12:25 pm 12:25 Cloudy 31 -0.6 25 -3.9 79 79 E 9 15 30.53 1034 10 16 0.00 0.00
12:53 pm 12:53 Cloudy 32 0 26 -3.3 79 79 E 13 20 30.51 1033 10 16 0.00 0.00
1:27 pm 13:27 Cloudy 33 0.6 26 -3.3 75 75 ENE 10 17 30.51 1033 10 16 0.00 0.00
1:53 pm 13:53 Cloudy 35 1.7 27 -2.8 72 72 ENE 13 20 30.48 1032 10 16 0.00 0.00
2:53 pm 14:53 Cloudy 34 1.1 26 -3.3 73 73 E 12 19 30.48 1032 10 16 0.00 0.00
3:23 pm 15:23 Cloudy 36 2.2 27 -2.8 70 70 E 12 19 30.45 1031 10 16 0.00 0.00
3:53 pm 15:53 Cloudy 36 2.2 27 -2.8 70 70 E 8 13 30.45 1031 10 16 0.00 0.00
4:53 pm 16:53 Cloudy 37 2.8 28 -2.2 70 70 E 8 13 30.44 1031 10 16 0.00 0.00
5:53 pm 17:53 Cloudy 37 2.8 28 -2.2 70 70 E 9 15 30.43 1031 10 16 0.00 0.00
6:53 pm 18:53 Cloudy 36 2.2 28 -2.2 73 73 E 10 17 30.43 1031 10 16 0.00 0.00
7:53 pm 19:53 Cloudy 35 1.7 27 -2.8 72 72 ENE 10 17 30.43 1030 10 16 0.00 0.00
8:53 pm 20:53 Cloudy 34 1.1 27 -2.8 76 76 E 12 19 30.42 1030 10 16 0.00 0.00
9:53 pm 21:53 Cloudy 34 1.1 28 -2.2 79 79 E 9 15 30.41 1030 10 16 0.00 0.00
10:53 pm 22:53 Cloudy 34 1.1 28 -2.2 79 79 E 6 9 30.41 1030 10 16 0.00 0.00
11:39 pm 23:39 Cloudy 34 1.1 28 -2.2 79 79 E 7 11 30.41 1030 10 16 0.00 0.00
11:53 pm 23:53 Cloudy 34 1.1 28 -2.2 79 79 E 7 11 30.40 1030 10 16 0.00 0.00

Powered by AerisWeather